Weather History for Monroe, MI

Change the Weather History Date:

Thursday, February 28, 2013

  Actual Average Record
Temperature  
Mean Temperature 36 °F -  
Max Temperature 39 °F 39 °F 64 °F (1976)
Min Temperature 33 °F 23 °F -2 °F (2014)
Degree Days  
Heating Degree Days 29    
Moisture  
Dew Point 32 °F    
Average Humidity 88    
Maximum Humidity 100    
Minimum Humidity 75    
Precipitation  
Precipitation 0.00 in - - ()
Sea Level Pressure  
Sea Level Pressure 29.71 in    
Wind  
Wind Speed 7 mph (NW)    
Max Wind Speed 14 mph    
Max Gust Speed 21 mph    
Visibility 8 miles    
Events Rain , Snow    
Averages and records for this station are not official NWS values.
T = Trace of Precipitation, MM = Missing Value Source: NWS Daily Summary

Daily Weather History Graph

Daily Weather History Graph

Search for Another Location

Airport:

Trip Planner

Search our weather history database for the weather conditions in past years. The results will help you decide how hot, cold, wet, or windy it might be!

Date:

Astronomy

Feb. 28, 2013 Rise Set
Actual Time 7:09 AM EST 6:23 PM EST
Civil Twilight 6:41 AM EST 6:51 PM EST
Nautical Twilight 6:09 AM EST 7:23 PM EST
Astronomical Twilight 5:37 AM EST 7:55 PM EST
Moon 9:53 PM EST (2/28) 8:15 AM EST (2/28)
Length of Visible Light 12h 09m
Length of Day
11h 13m
Waning Gibbous, 91% of the Moon is Illuminated
Feb 28
Waning Gibbous
Mar 4
Last Quarter
Mar 11
New
Mar 19
First Quarter
Mar 27
Full

Hourly Weather History & Observations

Time (EST) Temp. Windchill Dew Point Humidity Pressure Visibility Wind Dir Wind Speed Gust Speed Precip Events Conditions
12:15 AM 33.8 °F 26.4 °F 33.8 °F 100% 29.55 in 10.0 mi WSW 9.2 mph - N/A   Overcast
1:15 AM 33.8 °F 27.7 °F 33.8 °F 100% 29.55 in 10.0 mi SW 6.9 mph - N/A   Overcast
1:31 AM 33.8 °F 25.8 °F 32.0 °F 93% 29.54 in 10.0 mi WSW 10.4 mph - N/A   Overcast
1:46 AM 33.8 °F 26.4 °F 32.0 °F 93% 29.54 in 10.0 mi WSW 9.2 mph - N/A   Overcast
2:15 AM 33.8 °F - 32.0 °F 93% 29.55 in 7.0 mi Calm Calm - N/A   Overcast
2:35 AM 33.8 °F - 32.0 °F 93% 29.55 in 7.0 mi Calm Calm - N/A   Overcast
2:56 AM 33.8 °F - 32.0 °F 93% 29.55 in 7.0 mi Calm Calm - N/A   Overcast
3:11 AM 33.8 °F - 32.0 °F 93% 29.55 in 7.0 mi Calm Calm - N/A   Overcast
3:31 AM 33.8 °F - 32.0 °F 93% 29.54 in 7.0 mi Calm Calm - N/A   Overcast
3:51 AM 33.8 °F - 32.0 °F 93% 29.55 in 7.0 mi Calm Calm - N/A   Overcast
4:11 AM 33.8 °F - 33.8 °F 100% 29.54 in 5.0 mi Calm Calm - N/A   Overcast
4:31 AM 33.8 °F - 33.8 °F 100% 29.54 in 5.0 mi Calm Calm - N/A   Overcast
4:51 AM 33.8 °F - 33.8 °F 100% 29.55 in 4.0 mi Calm Calm - N/A   Overcast
5:11 AM 33.8 °F 28.6 °F 33.8 °F 100% 29.55 in 3.0 mi WSW 5.8 mph - N/A   Overcast
5:32 AM 33.8 °F 28.6 °F 33.8 °F 100% 29.56 in 3.0 mi West 5.8 mph - N/A Snow Light Snow
5:52 AM 33.8 °F 28.6 °F 33.8 °F 100% 29.56 in 2.0 mi West 5.8 mph - N/A Snow Light Snow
6:12 AM 33.8 °F 28.6 °F 33.8 °F 100% 29.57 in 2.0 mi West 5.8 mph - N/A Snow Light Snow
6:32 AM 33.8 °F 28.6 °F 33.8 °F 100% 29.57 in 2.5 mi West 5.8 mph - N/A Snow Light Snow
6:52 AM 33.8 °F 28.6 °F 33.8 °F 100% 29.58 in 2.5 mi WNW 5.8 mph - N/A Snow Light Snow
7:12 AM 33.8 °F 27.7 °F 33.8 °F 100% 29.58 in 5.0 mi WNW 6.9 mph - N/A Snow Light Snow
7:32 AM 33.8 °F 27.7 °F 33.8 °F 100% 29.59 in 3.0 mi NW 6.9 mph - N/A Snow Light Snow
7:52 AM 33.8 °F 27.0 °F 33.8 °F 100% 29.60 in 1.0 mi NW 8.1 mph - N/A Snow Light Snow
8:12 AM 33.8 °F 27.0 °F 33.8 °F 100% 29.61 in 3.0 mi NW 8.1 mph - N/A Snow Light Snow
8:33 AM 35.6 °F 29.2 °F 33.8 °F 93% 29.62 in 1.0 mi NW 8.1 mph - N/A Snow Light Snow
8:53 AM 35.6 °F 29.2 °F 33.8 °F 93% 29.63 in 4.0 mi NW 8.1 mph - N/A Snow Light Snow
9:13 AM 35.6 °F 29.2 °F 33.8 °F 93% 29.63 in 2.5 mi NW 8.1 mph - N/A Snow Light Snow
9:33 AM 35.6 °F 28.6 °F 33.8 °F 93% 29.64 in 2.5 mi NW 9.2 mph - N/A Snow Light Snow
9:53 AM 35.6 °F 27.1 °F 33.8 °F 93% 29.64 in 10.0 mi NNW 12.7 mph 16.1 mph N/A Rain Light Rain
10:13 AM 37.4 °F 29.3 °F 33.8 °F 87% 29.65 in 10.0 mi NW 12.7 mph 17.3 mph N/A   Overcast
10:33 AM 37.4 °F 29.8 °F 33.8 °F 87% 29.66 in 10.0 mi NNW 11.5 mph - N/A   Overcast
10:53 AM 37.4 °F 30.3 °F 33.8 °F 87% 29.66 in 10.0 mi NNW 10.4 mph - N/A   Overcast
11:13 AM 37.4 °F 29.8 °F 33.8 °F 87% 29.67 in 10.0 mi NNW 11.5 mph 16.1 mph N/A   Overcast
11:33 AM 37.4 °F 30.8 °F 33.8 °F 87% 29.68 in 10.0 mi NNW 9.2 mph 17.3 mph N/A   Overcast
11:54 AM 37.4 °F 29.3 °F 32.0 °F 81% 29.69 in 10.0 mi NNW 12.7 mph 20.7 mph N/A   Overcast
12:14 PM 37.4 °F 29.8 °F 33.8 °F 87% 29.70 in 10.0 mi NNW 11.5 mph - N/A   Overcast
12:34 PM 37.4 °F 29.3 °F 33.8 °F 87% 29.70 in 10.0 mi NNW 12.7 mph 17.3 mph N/A   Overcast
12:54 PM 39.2 °F 34.2 °F 32.0 °F 75% 29.70 in 10.0 mi NNW 6.9 mph 17.3 mph N/A   Overcast
1:14 PM 37.4 °F 29.8 °F 33.8 °F 87% 29.71 in 10.0 mi NNW 11.5 mph - N/A   Overcast
1:34 PM 37.4 °F 30.8 °F 33.8 °F 87% 29.71 in 10.0 mi NNW 9.2 mph - N/A   Overcast
1:54 PM 39.2 °F 32.0 °F 32.0 °F 75% 29.72 in 10.0 mi NNW 11.5 mph 16.1 mph N/A   Overcast
2:14 PM 37.4 °F 30.3 °F 32.0 °F 81% 29.73 in 10.0 mi NNW 10.4 mph 16.1 mph N/A   Overcast
2:34 PM 37.4 °F 31.4 °F 32.0 °F 81% 29.73 in 10.0 mi North 8.1 mph - N/A   Overcast
2:54 PM 37.4 °F 29.8 °F 30.2 °F 75% 29.74 in 10.0 mi North 11.5 mph 17.3 mph N/A   Overcast
3:15 PM 37.4 °F 30.3 °F 32.0 °F 81% 29.75 in 10.0 mi North 10.4 mph - N/A   Overcast
3:35 PM 37.4 °F 28.9 °F 30.2 °F 75% 29.76 in 10.0 mi North 13.8 mph 20.7 mph N/A   Overcast
3:55 PM 37.4 °F 29.3 °F 30.2 °F 75% 29.77 in 10.0 mi NNW 12.7 mph 17.3 mph N/A   Overcast
4:15 PM 37.4 °F 31.4 °F 30.2 °F 75% 29.78 in 10.0 mi North 8.1 mph - N/A   Overcast
4:35 PM 37.4 °F 30.3 °F 30.2 °F 75% 29.79 in 10.0 mi NNW 10.4 mph - N/A   Overcast
4:55 PM 37.4 °F 30.3 °F 30.2 °F 75% 29.80 in 10.0 mi NNW 10.4 mph - N/A   Overcast
5:15 PM 35.6 °F 27.5 °F 30.2 °F 81% 29.81 in 10.0 mi NNW 11.5 mph 16.1 mph N/A   Overcast
5:35 PM 35.6 °F 28.0 °F 30.2 °F 81% 29.82 in 10.0 mi NNW 10.4 mph - N/A   Overcast
5:55 PM 35.6 °F 28.0 °F 30.2 °F 81% 29.83 in 10.0 mi NNW 10.4 mph - N/A   Overcast
6:11 PM 35.6 °F 27.5 °F 30.2 °F 81% 29.84 in 10.0 mi NW 11.5 mph 16.1 mph N/A   Overcast
6:31 PM 35.6 °F 28.6 °F 28.4 °F 75% 29.85 in 10.0 mi North 9.2 mph - N/A   Overcast
6:51 PM 35.6 °F 28.6 °F 28.4 °F 75% 29.86 in 10.0 mi NNW 9.2 mph - N/A   Overcast
7:11 PM 35.6 °F 29.2 °F 28.4 °F 75% 29.87 in 10.0 mi NNW 8.1 mph - N/A   Overcast
7:31 PM 33.8 °F 27.7 °F 30.2 °F 87% 29.88 in 10.0 mi NNW 6.9 mph - N/A   Overcast
7:51 PM 33.8 °F 27.7 °F 30.2 °F 87% 29.89 in 10.0 mi NNW 6.9 mph - N/A   Overcast
8:11 PM 33.8 °F 27.0 °F 30.2 °F 87% 29.90 in 10.0 mi North 8.1 mph - N/A   Overcast
8:31 PM 33.8 °F 26.4 °F 30.2 °F 87% 29.90 in 10.0 mi North 9.2 mph - N/A   Overcast
8:51 PM 33.8 °F 25.8 °F 30.2 °F 87% 29.91 in 10.0 mi North 10.4 mph - N/A   Overcast
9:11 PM 33.8 °F 26.4 °F 30.2 °F 87% 29.92 in 10.0 mi North 9.2 mph - N/A   Overcast
9:32 PM 33.8 °F 27.7 °F 28.4 °F 81% 29.92 in 10.0 mi NNW 6.9 mph - N/A   Overcast
9:52 PM 33.8 °F 28.6 °F 28.4 °F 81% 29.92 in 10.0 mi NNW 5.8 mph - N/A   Overcast
10:12 PM 33.8 °F 28.6 °F 28.4 °F 81% 29.93 in 10.0 mi NNW 5.8 mph - N/A   Overcast
10:32 PM 33.8 °F 29.6 °F 28.4 °F 81% 29.93 in 10.0 mi NNW 4.6 mph - N/A   Overcast
11:12 PM 33.8 °F 27.0 °F 28.4 °F 81% 29.92 in 10.0 mi North 8.1 mph - N/A   Overcast
11:32 PM 33.8 °F 26.4 °F 28.4 °F 81% 29.93 in 10.0 mi North 9.2 mph - N/A   Overcast
11:52 PM 33.8 °F 25.3 °F 28.4 °F 81% 29.93 in 10.0 mi North 11.5 mph - N/A   Overcast